Regional Weather Roundup
Issued by NWS

Home | Current Version | Previous Version | Graphics & Text | Print | Product List | Glossary Off
Versions: 1 2 3 4 5 6 7 8 9 10 11 12 13 14 15 16 17 18 19 20 21 22 23 24 25 26 27 28 29 30 31 32 33 34 35 36 37 38 39 40 41 42 43 44 45 46 47 48 49 50

000
ASUS43 KBIS 200420
RWRND

NORTH DAKOTA REGIONAL WEATHER ROUNDUP
NATIONAL WEATHER SERVICE BISMARCK ND
1100 PM CDT SAT APR 19 2014

NOTE: "FAIR" INDICATES FEW OR NO CLOUDS BELOW 12,000 FEET WITH NO
SIGNIFICANT WEATHER AND/OR OBSTRUCTIONS TO VISIBILITY.


NDZ001>003-009>011-017-200500-
NORTHWEST NORTH DAKOTA

CITY           SKY/WX    TMP DP  RH WIND       PRES   REMARKS
WILLISTON      CLEAR     37  30  75 CALM      29.92R
MINOT          CLEAR     39  32  76 SE6       29.96R
MINOT AFB      CLEAR     35  34  95 S5        29.95S
$$

NDZ018>021-031>035-040>046-200500-
SOUTHWEST NORTH DAKOTA

CITY           SKY/WX    TMP DP  RH WIND       PRES   REMARKS
BISMARCK       CLEAR     44  32  62 NE7       29.99R
DICKINSON      CLEAR     38  25  59 S7        29.94S
GARRISON         N/A     40  31  70 NE5       29.96R
HETTINGER ARPT CLEAR     36  24  62 CALM      29.98S
$$

NDZ004>008-012>016-024-026-027-054-200500-
NORTHEAST NORTH DAKOTA

CITY           SKY/WX    TMP DP  RH WIND       PRES   REMARKS
GRAND FORKS    CLEAR     40  34  79 W5        30.00R
GRND FRKS AFB  CLEAR     39  33  78 NW5       30.01R
DEVILS LAKE    CLEAR     36  27  69 CALM      30.00R
$$

NDZ022-023-025-028>030-036>039-047>053-200500-
SOUTHEAST NORTH DAKOTA

CITY           SKY/WX    TMP DP  RH WIND       PRES   REMARKS
FARGO          CLEAR     47  36  65 N10       30.00R
JAMESTOWN      CLEAR     39  35  86 E5        29.99S
$$




USA.gov is the U.S. government's official web portal to all federal, state and local government web resources and services.